Terminal Aerodrome Forecast
Issued by NWS

Home | Current Version | Previous Version | Text Only | Print | Product List | Glossary On
Versions: 1 2 3 4 5 6 7 8 9 10 11 12 13 14 15 16 17 18 19 20 21 22 23 24 25 26 27 28 29 30 31 32 33 34 35 36 37 38 39 40
940
FTUS42 KMFL 101725
TAFFXE
TAF
KFXE 101725Z 1018/1118 31010KT P6SM FEW040 SCT200
     FM110000 30005KT P6SM SKC
     FM111400 33008KT P6SM SKC=

USA.gov is the U.S. government's official web portal to all federal, state and local government web resources and services.